Current weather by "City, St" or "zip code"  
 

Current Conditions: Martinsville, VA

Overcast


51.0 F

Last Updated on Oct 26 2020, 7:55 am EDT
Humidity: 100%
Wind Speed: N 0.0 mph
Barometer 30.18 in
Dewpoint: 50.9 F
Visibility: 10.00 mi
Precip: --
Heat Index: NA
Wind Chill: NA
Current conditions at:

Martinsville, VA (KMTV)

Lat: 36.63333 Lon: 80.01667

Local Radar Image active severe weather and emergency alerts image image weather storm and storm spotter reports image weather observation monitoring service image
Local
Radar
Active
Alerts
Storm Reports Obs
Monitoring

Sign-up For Email & Text Message Weather Alert Notification Services



Advertise Here

Observation History for Martinsville, VA


Time Wind
(mph)
Vis
(mi)
Weather Precip (in) Temperature (F) Relative
Humidity
Wind
Chill
(F)
Heat
Index
(F)
Pressure
Air Dwpt altimeter
(in)
sea level
(mb)
Rmks
7:55 am EDT N 0.0 10.00 Overcast -- 51.0 50.9 100% NA NA 30.18 M
6:55 am EDT N 0.0 10.00 Overcast -- 51.0 50.9 100% NA NA 30.18 M
5:55 am EDT N 0.0 10.00 Overcast -- 50.0 50.2 100% NA NA 30.17 M
4:55 am EDT N 0.0 10.00 Overcast -- 50.0 50.0 100% NA NA 30.15 M
3:55 am EDT NE 3.5 10.00 Overcast -- 49.0 49.5 100% NA NA 30.15 M
2:55 am EDT N 3.5 5.00 Fog/Mist -- 49.0 49.1 100% NA NA 30.17 M
1:55 am EDT N 5.8 4.00 Fog/Mist -- 49.0 48.7 100% 47 NA 30.19 M
12:55 am EDT N 4.6 5.00 Fog/Mist -- 49.0 48.6 100% 47 NA 30.19 M
11:55 pm EDT N 4.6 5.00 Fog/Mist -- 48.0 48.2 100% 46 NA 30.18 M
10:55 pm EDT N 6.9 7.00 Overcast -- 48.0 48.4 100% 45 NA 30.19 M
9:55 pm EDT NE 6.9 10.00 Overcast -- 48.0 48.2 100% 45 NA 30.17 M
8:55 pm EDT NE 5.8 10.00 Overcast -- 48.0 48.4 100% 45 NA 30.17 M
7:55 pm EDT N 4.6 10.00 Overcast -- 48.0 48.2 100% 46 NA 30.17 M
6:55 pm EDT NE 4.6 7.00 Overcast -- 48.0 48.2 100% 46 NA 30.15 M
5:55 pm EDT NE 6.9 7.00 Light Drizzle -- 49.0 48.9 100% 46 NA 30.13 M
4:55 pm EDT NE 5.8 10.00 Overcast -- 50.0 49.6 100% 48 NA 30.13 M
3:55 pm EDT N 9.2 7.00 Overcast -- 50.0 50.0 100% 46 NA 30.12 M
2:55 pm EDT NE 8.1 G 16.1 7.00 Overcast -- 51.0 50.9 100% 48 NA 30.13 M
1:55 pm EDT NE 9.2 10.00 Overcast -- 51.0 51.3 100% 48 NA 30.14 M
12:55 pm EDT NE 9.2 4.00 Fog/Mist -- 52.0 52.2 100% 49 NA 30.15 M
11:55 am EDT NE 6.9 10.00 Overcast -- 53.0 52.9 100% 51 NA 30.15 M
10:55 am EDT NE 8.1 10.00 Rain -- 53.0 52.7 100% 50 NA 30.15 M
9:55 am EDT NE 4.6 10.00 Light Rain -- 53.0 52.5 100% 52 NA 30.15 M
8:55 am EDT N 3.5 7.00 Rain -- 53.0 52.9 100% NA NA 30.13 M

Regional Weather Observation


Hillsville, VA (KHLX)

Fog
50.0 F

Mount Airy/Surry County Airport, NC (KMWK)

Overcast
53.0 F

Virginia Tech Airport, VA (KBCB)

Fog
49.0 F

Dublin / New River Valley, VA (KPSK)

Fog/Mist
49.0 F

Reidsville, Rockingham County NC Shiloh Airport, NC (KSIF)

Fog/Mist
50.0 F

Winston Salem, Smith Reynolds Airport, NC (KINT)

Overcast
51.0 F